Change the Weather History Date:

Tuesday, May 14, 2013

  Actual Average Record
Temperature  
Mean Temperature 58 °F 59 °F  
Max Temperature 68 °F 71 °F 98 °F (1939)
Min Temperature 48 °F 47 °F 32 °F (1955)
Degree Days  
Heating Degree Days 7 7  
Month to date heating degree days 41 126  
Since 1 July heating degree days 4465 5006  
Cooling Degree Days 0 1  
Month to date cooling degree days 57 11  
Year to date cooling degree days 57 13  
Growing Degree Days 9 (Base 50)    
Moisture  
Dew Point 36 °F    
Average Humidity 48    
Maximum Humidity 63    
Minimum Humidity 32    
Precipitation  
Precipitation 0.00 in 0.05 in 0.76 in (1894)
Month to date precipitation 0.04 0.69  
Year to date precipitation 3.05 5.02  
Snow  
Snow 0.00 in 0.00 in 0.00 in (1995)
Month to date snowfall 0.0 0.0  
Since 1 July snowfall 2.6 10.5  
Snow Depth 0.00 in    
Sea Level Pressure  
Sea Level Pressure 30.10 in    
Wind  
Wind Speed 5 mph (NW)    
Max Wind Speed 16 mph    
Max Gust Speed 28 mph    
Visibility 10 miles    
Events      
T = Trace of Precipitation, MM = Missing Value Source: NWS Daily Summary

Daily Weather History Graph

Daily Weather History Graph

Search for Another Location

Airport or City:

Trip Planner

Search our weather history database for the weather conditions in past years. The results will help you decide how hot, cold, wet, or windy it might be!

Date:

Astronomy

May. 14, 2013 Rise Set
Actual Time 5:15 AM PDT 8:14 PM PDT
Civil Twilight 4:40 AM PDT 8:49 PM PDT
Nautical Twilight 3:54 AM PDT 9:35 PM PDT
Astronomical Twilight 3:00 AM PDT 10:29 PM PDT
Moon 9:00 AM PDT (5/14) No Moon Set
Length of Visible Light 16h 09m
Length of Day
14h 58m
Waxing Crescent, 19% of the Moon is Illuminated
May 14
Waxing Crescent
May 17
First Quarter
May 24
Full
May 31
Last Quarter
Jun 8
New

Hourly Weather History & Observations

Time (PDT) Temp. Dew Point Humidity Pressure Visibility Wind Dir Wind Speed Gust Speed Precip Events Conditions
12:56 AM 55.9 °F 37.9 °F 51% 30.11 in 10.0 mi WNW 13.8 mph 20.7 mph N/A   Scattered Clouds
1:56 AM 55.0 °F 37.0 °F 51% 30.14 in 10.0 mi West 6.9 mph - N/A   Scattered Clouds
2:56 AM 54.0 °F 36.0 °F 51% 30.14 in 10.0 mi West 5.8 mph - N/A   Clear
3:56 AM 52.0 °F 37.0 °F 57% 30.16 in 10.0 mi Calm Calm - N/A   Clear
4:56 AM 51.1 °F 37.9 °F 61% 30.16 in 10.0 mi ESE 3.5 mph - N/A   Clear
5:56 AM 51.1 °F 39.0 °F 63% 30.16 in 10.0 mi SSE 3.5 mph - N/A   Clear
6:56 AM 54.0 °F 39.0 °F 57% 30.16 in 10.0 mi Calm Calm - N/A   Clear
7:56 AM 55.9 °F 39.9 °F 55% 30.15 in 10.0 mi NNE 6.9 mph - N/A   Clear
8:56 AM 57.0 °F 39.9 °F 53% 30.15 in 10.0 mi Variable 4.6 mph - N/A   Clear
9:56 AM 60.1 °F 37.9 °F 44% 30.14 in 10.0 mi Variable 4.6 mph - N/A   Clear
10:56 AM 63.0 °F 36.0 °F 37% 30.13 in 10.0 mi North 5.8 mph - N/A   Clear
11:56 AM 63.0 °F 36.0 °F 37% 30.11 in 10.0 mi Variable 6.9 mph - N/A   Mostly Cloudy
12:56 PM 66.0 °F 37.0 °F 34% 30.09 in 10.0 mi Variable 5.8 mph - N/A   Mostly Cloudy
1:56 PM 66.9 °F 37.9 °F 34% 30.08 in 10.0 mi NNW 8.1 mph - N/A   Partly Cloudy
2:56 PM 66.0 °F 37.0 °F 34% 30.06 in 10.0 mi WNW 8.1 mph - N/A   Partly Cloudy
3:56 PM 66.9 °F 36.0 °F 32% 30.05 in 10.0 mi NW 4.6 mph - N/A   Clear
4:56 PM 66.9 °F 36.0 °F 32% 30.04 in 10.0 mi WNW 10.4 mph - N/A   Clear
5:56 PM 64.9 °F 36.0 °F 34% 30.04 in 10.0 mi NW 5.8 mph - N/A   Overcast
6:56 PM 66.0 °F 35.1 °F 32% 30.04 in 10.0 mi NW 3.5 mph - N/A   Scattered Clouds
7:56 PM 62.1 °F 34.0 °F 35% 30.04 in 10.0 mi North 5.8 mph - N/A   Clear
8:56 PM 60.1 °F 34.0 °F 38% 30.05 in 10.0 mi Calm Calm - N/A   Clear
9:56 PM 54.0 °F 35.1 °F 49% 30.07 in 10.0 mi South 4.6 mph - N/A   Clear
10:56 PM 51.1 °F 34.0 °F 52% 30.08 in 10.0 mi SSE 3.5 mph - N/A   Clear
11:56 PM 52.0 °F 32.0 °F 47% 30.07 in 10.0 mi Calm Calm - N/A   Clear